Weather Roundup
Issued by NWS

Current Version | Previous Version | Graphics & Text | Print | Product List | Glossary On
Versions: 1 2 3 4 5 6 7 8 9 10 11 12 13 14 15 16 17 18 19 20 21 22 23 24 25 26 27 28 29 30 31 32 33 34 35 36 37 38 39 40 41 42 43 44 45 46 47 48 49 50
000
NZUS99 KDVN 211110
HRRCWA
HOURLY WEATHER ROUNDUP
NATIONAL WEATHER SERVICE QUAD CITIES IA IL
600 AM CDT WED OCT 21 2020

Note: "Fair" indicates few or no clouds below 12,000 feet with
no significant weather and/or obstructions to visibility.

* - These stations are not NWS stations and are not subject to NWS
quality control.  Some stations do not report weather such as fog
and some only report TMP and DP in whole degrees Celsius, which are
then converted to Fahrenheit.

...NORTHEAST IOWA..................................................

CITY           SKY/WX    TMP DP  RH WIND       PRES   REMARKS
DECORAH *      CLOUDY    37  37 100 NW7G17    30.11R WCI  32
DUBUQUE        CLOUDY    41  37  86 NW16G23   30.13R WCI  33
INDEPENDENCE * CLEAR     35  34  98 W3        30.14R FOG
OELWEIN *      CLOUDY    39  37  93 W7        30.14R WCI  34
WATERLOO       CLOUDY    40  36  86 NW8       30.14R WCI  34

...SOUTHWEST AND SOUTH CENTRAL WISCONSIN...........................

CITY           SKY/WX    TMP DP  RH WIND       PRES   REMARKS
BOSCOBEL       CLOUDY    44  38  79 SW6       30.11R WCI  41
JANESVILLE *   CLOUDY    45  45 100 W9        30.09R WCI  40
LONE ROCK      CLOUDY    42  38  85 W6        30.10R WCI  38
MINERAL POINT* CLOUDY    41  39  93 W7        30.10R WCI  36
MONROE *       CLOUDY    42  38  88 W12       30.09R WCI  35
PRAIRIE DU CHI CLOUDY    43  37  80 W8        30.12R WCI  38

...EAST CENTRAL IOWA...............................................

CITY           SKY/WX    TMP DP  RH WIND       PRES   REMARKS
CEDAR RAPIDS   PTCLDY    35  35 100 W5        30.15R WCI  31
CLINTON *      CLOUDY    43  40  89 NW7       30.16R WCI  39
DAVENPORT      MOCLDY    42  39  89 W6        30.17R WCI  38
IOWA CITY      CLOUDY    38  37  97 NW5       30.17R WCI  34
MARSHALLTOWN   MOCLDY    35  35 100 SW3       30.15R FOG
MONTICELLO *   CLOUDY    41  41 100 NW8       30.14R WCI  36
MUSCATINE *    CLOUDY    43  41  93 NW7       30.17R WCI  39
NEWTON *       CLOUDY    39  39 100 W3        30.16R FOG
VINTON *       CLEAR     38  38 100 W6        30.15R WCI  33

...NORTHWEST ILLINOIS..............................................

CITY           SKY/WX    TMP DP  RH WIND       PRES   REMARKS
FREEPORT *     CLOUDY    41  41 100 W10       30.14R WCI  35
MOLINE         CLOUDY    45  39  79 W9        30.16R WCI  40
PERU *         CLOUDY    46  42  88 W8        30.15R WCI  41
ROCHELLE *     CLOUDY    43  42  94 W14       30.14R WCI  36
ROCKFORD       CLOUDY    45  40  82 W9        30.14R WCI  40
SAVANNA *      CLOUDY    43  37  81 W7        30.15R WCI  39
STERLING/R.F.* CLOUDY    44  41  89 W9        30.16R WCI  39

...SOUTHEAST IOWA AND NORTHEAST MISSOURI...........................

CITY           SKY/WX    TMP DP  RH WIND       PRES   REMARKS
BURLINGTON     CLOUDY    44  40  85 NW8       30.16R WCI  39
FAIRFIELD *    MOCLDY    41  41 100 NW6       30.16R WCI  37
FORT MADISON *   N/A     45  43  93 N5        30.17R WCI  42
KEOKUK *       CLOUDY    46  43  87 NW5       30.17R WCI  44
KIRKSVILLE     PTCLDY    41  39  93 N7        30.16R WCI  36
KNOXVILLE *    CLOUDY    37  36  93 CALM      30.16R FOG
MT PLEASANT *  CLOUDY    45  41  87 NW7       30.17R WCI  41
OTTUMWA        CLEAR     37  36  96 NW5       30.16R FOG     WCI  33
WASHINGTON *   CLEAR     41  41 100 W3        30.15R

...WESTERN ILLINOIS................................................

CITY           SKY/WX    TMP DP  RH WIND       PRES   REMARKS
GALESBURG *    CLOUDY    42  37  84 NW9       30.18R WCI  36
MACOMB *       CLOUDY    44  41  89 NW8       30.20R WCI  39
PEORIA         CLOUDY    45  41  86 NW8       30.17R WCI  41
QUINCY         CLOUDY    45  42  89 N6        30.17R WCI  42

END...




USA.gov is the U.S. government's official web portal to all federal, state and local government web resources and services.